Tracking 29892 objects as of 21-Nov-2024
HD Live streaming from Space Station
objects crossing your sky now

STARLINK-5057

Track STARLINK-5057 now!
10-day predictions
STARLINK-5057 is classified as:


NORAD ID: 53908
Int'l Code: 2022-119Y
Perigee: 545.7 km
Apogee: 548.1 km
Inclination: 53.2 °
Period: 95.4 minutes
Semi major axis: 6917 km
RCS: Unknown
Launch date: September 24, 2022
Source: United States (US)
Launch site: AIR FORCE EASTERN TEST RANGE (AFETR)
Your satellite tracking list
Your tracking list is empty




NASA's NSSDC Master Catalog

Two Line Element Set (TLE):
1 53908U 22119Y   24325.87969577  .00001056  00000-0  84468-4 0  9990
2 53908  53.2162 281.2745 0001715  83.3151 276.8036 15.08836659119879
Source of the keplerian elements: AFSPC